User: anonymous   Login
Location: Celina Division
(33.3022°N, 96.7580°W)
Time: 11:51:27
(UTC+00:00)
Language:

USA 294 - Orbit

View from above orbital plane
View from above orbital plane
View from above satellite
View from above satellite

Ground track
Ground track

The orbit data is extracted from the following two-line orbital elements,

1 45110U 20007A   22267.76252283 0.00011000  00000-0  84288-3 0    02
2 45110  69.9933 244.9423 0007010 257.4649 102.5351 15.01724230    07
Epoch (UTC): 24 September 2022 18:18:01
Eccentricity: 0.0007010
inclination: 69.9933°
perigee height: 557 km
apogee height: 566 km
right ascension of ascending node: 244.9423°
argument of perigee: 257.4649°
revolutions per day: 15.01724230
mean anomaly at epoch: 102.5351°
orbit number at epoch: 0

The dashed part of the orbit path shows where the satellite is in the earth's shadow,  

DLR